| time (UTC) | temp C | wind direction | speed KPH | gust KPH | rain 1hr cm | rain 24hr cm | rain mn cm | humidity % | barometer mb |
| 20260506153543 | 13 | 83 | 8.0 | 30.6 | 0.00 | 0.18 | 0.18 | 91 | 1013.9 |
| 20260506153057 | 13 | 66 | 12.9 | 30.6 | 0.00 | 0.18 | 0.18 | 90 | 1013.8 |
| 20260506152539 | 13 | 105 | 17.7 | 30.6 | 0.03 | 0.18 | 0.18 | 90 | 1013.7 |
| 20260506152042 | 13 | 63 | 11.3 | 27.4 | 0.03 | 0.18 | 0.18 | 91 | 1013.5 |
| 20260506151552 | 13 | 89 | 12.9 | 27.4 | 0.05 | 0.18 | 0.18 | 90 | 1013.4 |
| 20260506151042 | 13 | 64 | 14.5 | 27.4 | 0.05 | 0.18 | 0.18 | 90 | 1013.2 |
| 20260506150543 | 13 | 88 | 16.1 | 29.0 | 0.05 | 0.18 | 0.18 | 90 | 1013.0 |
| 20260506150053 | 13 | 91 | 14.5 | 38.6 | 0.05 | 0.18 | 0.18 | 90 | 1013.1 |
| 20260506145542 | 13 | 86 | 14.5 | 38.6 | 0.08 | 0.18 | 0.18 | 90 | 1013.1 |
| 20260506145042 | 13 | 64 | 14.5 | 38.6 | 0.08 | 0.18 | 0.18 | 90 | 1013.1 |
| 20260506144551 | 14 | 37 | 17.7 | 33.8 | 0.08 | 0.18 | 0.18 | 89 | 1013.1 |
| 20260506144042 | 14 | 76 | 17.7 | 33.8 | 0.08 | 0.18 | 0.18 | 90 | 1013.1 |
| 20260506143542 | 14 | 97 | 16.1 | 38.6 | 0.08 | 0.18 | 0.18 | 89 | 1013.0 |
| 20260506143050 | 15 | 69 | 17.7 | 43.5 | 0.08 | 0.18 | 0.18 | 89 | 1012.8 |
| 20260506142542 | 15 | 29 | 16.1 | 43.5 | 0.05 | 0.15 | 0.15 | 89 | 1012.8 |
| 20260506142042 | 15 | 45 | 17.7 | 40.2 | 0.05 | 0.15 | 0.15 | 89 | 1012.6 |
| 20260506141554 | 15 | 33 | 19.3 | 40.2 | 0.03 | 0.13 | 0.13 | 89 | 1012.4 |
| 20260506141044 | 15 | 53 | 22.5 | 41.8 | 0.03 | 0.13 | 0.13 | 88 | 1012.4 |
| 20260506140544 | 16 | 40 | 20.9 | 41.8 | 0.03 | 0.13 | 0.13 | 89 | 1012.3 |
| 20260506140052 | 16 | 30 | 16.1 | 33.8 | 0.03 | 0.13 | 0.13 | 89 | 1012.1 |
| 20260506135539 | 16 | 28 | 11.3 | 20.9 | 0.00 | 0.10 | 0.10 | 90 | 1012.0 |
| 20260506135041 | 16 | 41 | 8.0 | 16.1 | 0.00 | 0.10 | 0.10 | 90 | 1011.9 |
| 20260506134545 | 16 | 324 | 4.8 | 16.1 | 0.00 | 0.10 | 0.10 | 89 | 1011.8 |
| 20260506134043 | 16 | 294 | 4.8 | 14.5 | 0.00 | 0.10 | 0.10 | 89 | 1011.9 |
| 20260506133543 | 16 | 327 | 6.4 | 14.5 | 0.03 | 0.10 | 0.10 | 89 | 1011.8 |
| 20260506133049 | 16 | 296 | 4.8 | 12.9 | 0.08 | 0.10 | 0.10 | 89 | 1011.6 |
| 20260506132542 | 16 | 293 | 3.2 | 11.3 | 0.08 | 0.10 | 0.10 | 88 | 1011.6 |
| 20260506132042 | 16 | 307 | 4.8 | 8.0 | 0.08 | 0.10 | 0.10 | 88 | 1011.4 |
| 20260506131600 | 16 | 306 | 1.6 | 9.7 | 0.08 | 0.10 | 0.10 | 88 | 1011.4 |
| 20260506131042 | 16 | 11 | 3.2 | 9.7 | 0.08 | 0.10 | 0.10 | 88 | 1011.3 |
| 20260506130541 | 16 | 62 | 1.6 | 16.1 | 0.08 | 0.10 | 0.10 | 88 | 1011.1 |
| 20260506130112 | 17 | 41 | 1.6 | 16.1 | 0.08 | 0.10 | 0.10 | 88 | 1011.4 |
| 20260506125542 | 17 | 321 | 6.4 | 24.1 | 0.08 | 0.10 | 0.10 | 88 | 1011.3 |
| 20260506125042 | 17 | 9 | 8.0 | 24.1 | 0.08 | 0.10 | 0.10 | 87 | 1011.3 |
| 20260506124558 | 17 | 334 | 11.3 | 22.5 | 0.08 | 0.10 | 0.10 | 87 | 1011.3 |
| 20260506124042 | 17 | 359 | 6.4 | 17.7 | 0.08 | 0.10 | 0.10 | 87 | 1011.2 |
| 20260506123542 | 17 | 7 | 4.8 | 17.7 | 0.05 | 0.08 | 0.08 | 87 | 1011.0 |
| 20260506123049 | 17 | 297 | 6.4 | 17.7 | 0.00 | 0.03 | 0.03 | 87 | 1011.0 |
| 20260506122544 | 17 | 297 | 9.7 | 17.7 | 0.00 | 0.03 | 0.03 | 87 | 1010.8 |
| 20260506122041 | 17 | 309 | 6.4 | 17.7 | 0.00 | 0.03 | 0.03 | 88 | 1010.7 |
| 20260506121547 | 17 | 302 | 4.8 | 16.1 | 0.00 | 0.03 | 0.03 | 88 | 1010.8 |
| 20260506121042 | 17 | 309 | 1.6 | 16.1 | 0.00 | 0.03 | 0.03 | 88 | 1010.8 |
| 20260506120545 | 17 | 325 | 8.0 | 16.1 | 0.00 | 0.03 | 0.03 | 88 | 1010.7 |
| 20260506120100 | 17 | 12 | 1.6 | 4.8 | 0.00 | 0.03 | 0.03 | 88 | 1010.3 |
| 20260506115543 | 17 | 51 | 1.6 | 4.8 | 0.00 | 0.03 | 0.03 | 88 | 1010.2 |
| 20260506115042 | 17 | 41 | 1.6 | 4.8 | 0.00 | 0.03 | 0.03 | 87 | 1010.1 |
| 20260506114551 | 17 | 58 | 1.6 | 6.4 | 0.00 | 0.03 | 0.03 | 87 | 1010.0 |
| 20260506114042 | 17 | 319 | 1.6 | 6.4 | 0.00 | 0.03 | 0.03 | 87 | 1010.0 |
| 20260506113542 | 17 | 26 | 1.6 | 4.8 | 0.00 | 0.03 | 0.03 | 87 | 1009.7 |
| 20260506113055 | 17 | 28 | 1.6 | 4.8 | 0.00 | 0.03 | 0.03 | 87 | 1009.6 |
| 20260506112543 | 17 | 83 | 1.6 | 4.8 | 0.00 | 0.03 | 0.03 | 87 | 1009.5 |
| 20260506112043 | 17 | 0 | 0.0 | 3.2 | 0.00 | 0.03 | 0.03 | 87 | 1009.5 |
| 20260506111549 | 17 | 240 | 0.0 | 4.8 | 0.00 | 0.03 | 0.03 | 87 | 1009.4 |
| 20260506111042 | 17 | 83 | 0.0 | 4.8 | 0.00 | 0.03 | 0.03 | 87 | 1009.3 |
| 20260506110542 | 17 | 359 | 3.2 | 4.8 | 0.00 | 0.03 | 0.03 | 87 | 1009.3 |
| 20260506110055 | 17 | 83 | 1.6 | 3.2 | 0.00 | 0.03 | 0.03 | 87 | 1009.3 |
| 20260506105542 | 17 | 83 | 1.6 | 3.2 | 0.00 | 0.03 | 0.03 | 86 | 1009.1 |
| 20260506105041 | 17 | 0 | 1.6 | 3.2 | 0.00 | 0.03 | 0.03 | 86 | 1009.1 |
| 20260506104552 | 17 | 0 | 0.0 | 3.2 | 0.00 | 0.03 | 0.03 | 86 | 1009.1 |
| 20260506104042 | 17 | 0 | 0.0 | 4.8 | 0.00 | 0.03 | 0.03 | 86 | 1009.0 |
| 20260506103542 | 17 | 359 | 0.0 | 4.8 | 0.00 | 0.03 | 0.03 | 86 | 1009.1 |
| 20260506103057 | 17 | 306 | 1.6 | 6.4 | 0.00 | 0.03 | 0.03 | 86 | 1009.1 |
| 20260506102543 | 17 | 299 | 0.0 | 6.4 | 0.00 | 0.03 | 0.03 | 85 | 1009.0 |
| 20260506102042 | 17 | 315 | 1.6 | 3.2 | 0.00 | 0.03 | 0.03 | 85 | 1009.0 |
| 20260506101600 | 17 | 0 | 0.0 | 4.8 | 0.00 | 0.03 | 0.03 | 85 | 1008.9 |
| 20260506101042 | 17 | 0 | 0.0 | 6.4 | 0.00 | 0.03 | 0.03 | 85 | 1008.8 |
| 20260506100542 | 17 | 41 | 1.6 | 9.7 | 0.00 | 0.03 | 0.03 | 85 | 1008.8 |
| 20260506100109 | 17 | 276 | 3.2 | 9.7 | 0.00 | 0.03 | 0.03 | 85 | 1008.9 |
| 20260506095542 | 17 | 288 | 3.2 | 14.5 | 0.00 | 0.03 | 0.03 | 85 | 1008.7 |
| 20260506095042 | 17 | 299 | 6.4 | 14.5 | 0.00 | 0.03 | 0.03 | 84 | 1008.8 |
| 20260506094555 | 17 | 313 | 8.0 | 14.5 | 0.00 | 0.03 | 0.03 | 84 | 1008.8 |
| 20260506094042 | 18 | 276 | 4.8 | 12.9 | 0.00 | 0.03 | 0.03 | 84 | 1008.7 |
| 20260506093542 | 18 | 263 | 6.4 | 17.7 | 0.00 | 0.03 | 0.03 | 84 | 1008.6 |
| 20260506093052 | 18 | 282 | 6.4 | 17.7 | 0.00 | 0.03 | 0.03 | 83 | 1008.5 |
| 20260506092542 | 18 | 278 | 8.0 | 19.3 | 0.00 | 0.03 | 0.03 | 83 | 1008.5 |
| 20260506092043 | 18 | 332 | 11.3 | 22.5 | 0.00 | 0.03 | 0.03 | 82 | 1008.5 |
| 20260506091605 | 18 | 299 | 12.9 | 25.7 | 0.00 | 0.03 | 0.03 | 82 | 1008.3 |
| 20260506091043 | 18 | 292 | 16.1 | 25.7 | 0.03 | 0.03 | 0.03 | 82 | 1008.2 |
| 20260506090543 | 19 | 311 | 12.9 | 25.7 | 0.03 | 0.03 | 0.03 | 82 | 1008.2 |
| 20260506090051 | 19 | 302 | 12.9 | 25.7 | 0.03 | 0.03 | 0.03 | 82 | 1008.1 |
| 20260506085542 | 20 | 299 | 11.3 | 22.5 | 0.03 | 0.03 | 0.03 | 82 | 1008.0 |
| 20260506085042 | 20 | 269 | 11.3 | 22.5 | 0.03 | 0.03 | 0.03 | 82 | 1007.9 |
| 20260506084620 | 20 | 41 | 11.3 | 22.5 | 0.03 | 0.03 | 0.03 | 82 | 1007.9 |
| 20260506084043 | 21 | 289 | 12.9 | 22.5 | 0.03 | 0.03 | 0.03 | 82 | 1007.9 |
| 20260506083543 | 21 | 305 | 8.0 | 20.9 | 0.03 | 0.03 | 0.03 | 82 | 1007.8 |
| 20260506083051 | 21 | 324 | 12.9 | 27.4 | 0.03 | 0.03 | 0.03 | 83 | 1007.8 |
| 20260506082540 | 22 | 288 | 12.9 | 30.6 | 0.03 | 0.03 | 0.03 | 83 | 1007.7 |
| 20260506082042 | 22 | 274 | 14.5 | 46.7 | 0.03 | 0.03 | 0.03 | 83 | 1007.4 |
| 20260506081602 | 22 | 284 | 19.3 | 46.7 | 0.03 | 0.03 | 0.03 | 85 | 1007.3 |
| 20260506081042 | 23 | 281 | 12.9 | 32.2 | 0.00 | 0.00 | 0.00 | 89 | 1007.3 |
| 20260506080542 | 23 | 207 | 8.0 | 24.1 | 0.00 | 0.00 | 0.00 | 89 | 1007.1 |
| 20260506073057 | 23 | 204 | 14.5 | 33.8 | 0.00 | 0.00 | 0.00 | 89 | 1006.7 |
| 20260506072543 | 23 | 229 | 9.7 | 30.6 | 0.00 | 0.00 | 0.00 | 89 | 1006.6 |
| 20260506072044 | 23 | 216 | 11.3 | 30.6 | 0.00 | 0.00 | 0.00 | 89 | 1006.6 |
| 20260506071553 | 23 | 163 | 17.7 | 33.8 | 0.00 | 0.00 | 0.00 | 89 | 1006.7 |
| 20260506071042 | 23 | 359 | 9.7 | 33.8 | 0.00 | 0.00 | 0.00 | 89 | 1006.9 |
| 20260506070542 | 23 | 184 | 16.1 | 35.4 | 0.00 | 0.00 | 0.00 | 89 | 1006.6 |
| 20260506062043 | 23 | 159 | 12.9 | 30.6 | 0.00 | 0.00 | 0.00 | 88 | 1006.8 |
| 20260506061554 | 23 | 206 | 14.5 | 30.6 | 0.00 | 0.00 | 0.00 | 88 | 1006.9 |
| 20260506061043 | 23 | 202 | 11.3 | 25.7 | 0.00 | 0.00 | 0.00 | 87 | 1006.9 |
| 20260506060542 | 23 | 161 | 12.9 | 27.4 | 0.00 | 0.00 | 0.00 | 87 | 1007.0 |
| 20260506051042 | 23 | 199 | 11.3 | 24.1 | 0.00 | 0.00 | 0.00 | 86 | 1007.2 |
| 20260506050540 | 23 | 192 | 9.7 | 22.5 | 0.00 | 0.00 | 0.00 | 86 | 1007.3 |
| 20260506045042 | 23 | 202 | 11.3 | 24.1 | 0.00 | 0.00 | 0.00 | 85 | 1006.9 |
| 20260506044700 | 23 | 176 | 9.7 | 22.5 | 0.00 | 0.00 | 0.00 | 85 | 1006.9 |
| 20260506044042 | 23 | 186 | 11.3 | 22.5 | 0.00 | 0.00 | 0.00 | 85 | 1006.8 |
| 20260506043542 | 23 | 213 | 9.7 | 20.9 | 0.00 | 0.00 | 0.00 | 85 | 1006.8 |
| 20260506043107 | 23 | 193 | 9.7 | 22.5 | 0.00 | 0.00 | 0.00 | 85 | 1007.0 |
| 20260506042542 | 23 | 209 | 9.7 | 22.5 | 0.00 | 0.00 | 0.00 | 85 | 1006.9 |
| 20260506042041 | 24 | 195 | 9.7 | 20.9 | 0.00 | 0.00 | 0.00 | 85 | 1006.9 |
| 20260506041601 | 24 | 190 | 9.7 | 20.9 | 0.00 | 0.00 | 0.00 | 85 | 1006.8 |
| 20260506041042 | 24 | 143 | 9.7 | 20.9 | 0.00 | 0.00 | 0.00 | 84 | 1007.0 |
| 20260506040545 | 24 | 178 | 8.0 | 22.5 | 0.00 | 0.00 | 0.00 | 84 | 1006.9 |
| 20260506040052 | 24 | 218 | 6.4 | 22.5 | 0.00 | 0.00 | 0.00 | 84 | 1006.8 |
| 20260506035543 | 24 | 197 | 11.3 | 22.5 | 0.00 | 0.00 | 0.00 | 84 | 1006.7 |
| 20260506035043 | 24 | 215 | 9.7 | 22.5 | 0.00 | 0.00 | 0.00 | 84 | 1006.5 |
| 20260506034624 | 24 | 201 | 9.7 | 20.9 | 0.00 | 0.00 | 0.00 | 84 | 1006.3 |
| 20260506034042 | 24 | 198 | 12.9 | 20.9 | 0.00 | 0.00 | 0.00 | 84 | 1006.2 |
| 20260506033543 | 24 | 176 | 8.0 | 29.0 | 0.00 | 0.00 | 0.00 | 84 | 1005.8 |
| 20260506033056 | 24 | 173 | 9.7 | 30.6 | 0.00 | 0.00 | 0.00 | 84 | 1006.2 |
| 20260506032540 | 24 | 159 | 9.7 | 30.6 | 0.00 | 0.00 | 0.00 | 83 | 1006.1 |
| 20260506032040 | 24 | 197 | 11.3 | 19.3 | 0.00 | 0.00 | 0.00 | 83 | 1005.9 |
| 20260506031545 | 24 | 186 | 8.0 | 17.7 | 0.00 | 0.00 | 0.00 | 83 | 1006.3 |
| 20260506031043 | 25 | 198 | 9.7 | 16.1 | 0.00 | 0.00 | 0.00 | 83 | 1006.3 |
| 20260506030544 | 25 | 155 | 8.0 | 17.7 | 0.00 | 0.00 | 0.00 | 83 | 1006.2 |
| 20260506030052 | 25 | 255 | 8.0 | 17.7 | 0.00 | 0.00 | 0.00 | 83 | 1006.4 |
| 20260506025543 | 25 | 168 | 9.7 | 17.7 | 0.00 | 0.00 | 0.00 | 83 | 1006.1 |
| 20260506025045 | 25 | 165 | 6.4 | 17.7 | 0.00 | 0.00 | 0.00 | 83 | 1005.8 |
| 20260506024551 | 25 | 137 | 8.0 | 17.7 | 0.00 | 0.00 | 0.00 | 83 | 1005.7 |
| 20260506024043 | 25 | 163 | 6.4 | 16.1 | 0.00 | 0.00 | 0.00 | 82 | 1005.6 |
| 20260506023543 | 25 | 154 | 6.4 | 14.5 | 0.00 | 0.00 | 0.00 | 82 | 1005.6 |
| 20260506023107 | 25 | 168 | 6.4 | 17.7 | 0.00 | 0.00 | 0.00 | 82 | 1005.6 |
| 20260506022542 | 25 | 159 | 8.0 | 17.7 | 0.00 | 0.00 | 0.00 | 82 | 1005.6 |
| 20260506022043 | 25 | 129 | 6.4 | 14.5 | 0.00 | 0.00 | 0.00 | 82 | 1005.7 |
| 20260506021548 | 25 | 146 | 6.4 | 14.5 | 0.00 | 0.00 | 0.00 | 82 | 1005.9 |
| 20260506021043 | 25 | 168 | 4.8 | 14.5 | 0.00 | 0.00 | 0.00 | 82 | 1005.9 |
| 20260506020542 | 25 | 146 | 6.4 | 14.5 | 0.00 | 0.00 | 0.00 | 82 | 1005.8 |
| 20260506020047 | 25 | 149 | 6.4 | 14.5 | 0.00 | 0.00 | 0.00 | 82 | 1005.7 |
| 20260506015544 | 25 | 146 | 8.0 | 14.5 | 0.00 | 0.00 | 0.00 | 82 | 1005.6 |
| 20260506015045 | 25 | 192 | 6.4 | 12.9 | 0.00 | 0.00 | 0.00 | 82 | 1005.7 |
| 20260506014553 | 25 | 157 | 4.8 | 11.3 | 0.00 | 0.00 | 0.00 | 81 | 1005.7 |
| 20260506014043 | 25 | 140 | 4.8 | 11.3 | 0.00 | 0.00 | 0.00 | 81 | 1005.8 |
| 20260506013542 | 25 | 150 | 4.8 | 11.3 | 0.00 | 0.00 | 0.00 | 81 | 1005.6 |
| 20260506013053 | 25 | 168 | 4.8 | 11.3 | 0.00 | 0.00 | 0.00 | 80 | 1005.5 |
| 20260506012543 | 25 | 205 | 4.8 | 11.3 | 0.00 | 0.00 | 0.00 | 80 | 1005.7 |
| 20260506012045 | 25 | 132 | 3.2 | 11.3 | 0.00 | 0.00 | 0.00 | 79 | 1005.5 |
| 20260506011549 | 25 | 183 | 3.2 | 8.0 | 0.00 | 0.00 | 0.00 | 79 | 1005.5 |
| 20260506011043 | 26 | 202 | 3.2 | 8.0 | 0.00 | 0.00 | 0.00 | 79 | 1005.5 |
| 20260506010543 | 26 | 199 | 4.8 | 8.0 | 0.00 | 0.00 | 0.00 | 78 | 1005.5 |
| 20260506010100 | 26 | 186 | 1.6 | 8.0 | 0.00 | 0.00 | 0.00 | 78 | 1005.2 |
| 20260506005543 | 26 | 205 | 3.2 | 8.0 | 0.00 | 0.00 | 0.00 | 78 | 1005.2 |
| 20260506005042 | 26 | 229 | 3.2 | 8.0 | 0.00 | 0.00 | 0.00 | 78 | 1005.2 |
| 20260506004603 | 26 | 211 | 4.8 | 9.7 | 0.00 | 0.00 | 0.00 | 77 | 1005.1 |
| 20260506004043 | 26 | 180 | 3.2 | 16.1 | 0.00 | 0.00 | 0.00 | 77 | 1005.0 |
| 20260506003543 | 26 | 168 | 6.4 | 16.1 | 0.00 | 0.00 | 0.00 | 76 | 1004.8 |
| 20260506003102 | 26 | 180 | 4.8 | 11.3 | 0.00 | 0.00 | 0.00 | 76 | 1005.0 |
| 20260506002542 | 26 | 199 | 6.4 | 11.3 | 0.00 | 0.00 | 0.00 | 75 | 1005.1 |
| 20260506002042 | 26 | 217 | 4.8 | 11.3 | 0.00 | 0.00 | 0.00 | 75 | 1005.1 |
| 20260506001557 | 27 | 211 | 1.6 | 11.3 | 0.00 | 0.00 | 0.00 | 74 | 1005.1 |
| 20260506001043 | 27 | 229 | 6.4 | 14.5 | 0.00 | 0.00 | 0.00 | 74 | 1005.2 |
| 20260506000538 | 27 | 207 | 6.4 | 14.5 | 0.00 | 0.00 | 0.00 | 73 | 1005.2 |
| 20260506000053 | 27 | 215 | 3.2 | 20.9 | 0.00 | 0.00 | 0.00 | 73 | 1005.1 |
| 20260505235545 | 27 | 211 | 8.0 | 22.5 | 0.00 | 0.00 | 0.00 | 72 | 1004.9 |
| 20260505235041 | 27 | 211 | 8.0 | 22.5 | 0.00 | 0.00 | 0.00 | 72 | 1004.7 |
| 20260505234614 | 27 | 208 | 11.3 | 19.3 | 0.00 | 0.00 | 0.00 | 71 | 1004.6 |
| 20260505234042 | 27 | 202 | 8.0 | 22.5 | 0.00 | 0.00 | 0.00 | 71 | 1004.7 |
| 20260505233541 | 28 | 182 | 9.7 | 22.5 | 0.00 | 0.00 | 0.00 | 71 | 1004.5 |
| 20260505233051 | 28 | 140 | 9.7 | 20.9 | 0.00 | 0.00 | 0.00 | 70 | 1004.3 |
| 20260505232541 | 28 | 200 | 12.9 | 27.4 | 0.00 | 0.00 | 0.00 | 69 | 1004.4 |
| 20260505232043 | 28 | 223 | 8.0 | 27.4 | 0.00 | 0.00 | 0.00 | 68 | 1004.6 |
| 20260505231550 | 29 | 211 | 8.0 | 25.7 | 0.00 | 0.00 | 0.00 | 68 | 1004.6 |
| 20260505231040 | 28 | 219 | 12.9 | 25.7 | 0.00 | 0.00 | 0.00 | 67 | 1004.7 |
| 20260505230541 | 28 | 219 | 11.3 | 25.7 | 0.00 | 0.00 | 0.00 | 68 | 1004.8 |
| 20260505230054 | 28 | 192 | 12.9 | 29.0 | 0.00 | 0.00 | 0.00 | 68 | 1004.6 |
| 20260505225539 | 28 | 219 | 14.5 | 29.0 | 0.00 | 0.00 | 0.00 | 67 | 1004.8 |
| 20260505225039 | 28 | 168 | 12.9 | 24.1 | 0.00 | 0.00 | 0.00 | 68 | 1004.9 |
| 20260505224549 | 28 | 149 | 8.0 | 22.5 | 0.00 | 0.00 | 0.00 | 69 | 1004.8 |
| 20260505224038 | 28 | 152 | 6.4 | 24.1 | 0.00 | 0.00 | 0.00 | 70 | 1004.8 |
| 20260505223541 | 28 | 255 | 12.9 | 24.1 | 0.00 | 0.00 | 0.00 | 68 | 1004.8 |
| 20260505223052 | 28 | 186 | 9.7 | 35.4 | 0.00 | 0.00 | 0.00 | 66 | 1004.7 |
| 20260505222538 | 29 | 247 | 12.9 | 38.6 | 0.00 | 0.00 | 0.00 | 67 | 1004.5 |
| 20260505222038 | 28 | 238 | 14.5 | 38.6 | 0.00 | 0.00 | 0.00 | 66 | 1004.7 |
| 20260505221549 | 28 | 215 | 16.1 | 37.0 | 0.00 | 0.00 | 0.00 | 69 | 1004.9 |
| 20260505221040 | 28 | 224 | 11.3 | 25.7 | 0.00 | 0.00 | 0.00 | 68 | 1004.8 |
| 20260505220539 | 28 | 185 | 8.0 | 27.4 | 0.00 | 0.00 | 0.00 | 69 | 1004.8 |
| 20260505215539 | 28 | 195 | 14.5 | 27.4 | 0.00 | 0.00 | 0.00 | 67 | 1004.7 |
| 20260505215042 | 28 | 211 | 12.9 | 27.4 | 0.00 | 0.00 | 0.00 | 66 | 1004.8 |
| 20260505214554 | 29 | 204 | 11.3 | 24.1 | 0.00 | 0.00 | 0.00 | 68 | 1004.7 |
| 20260505214040 | 29 | 203 | 11.3 | 29.0 | 0.00 | 0.00 | 0.00 | 69 | 1004.9 |
| 20260505213541 | 28 | 228 | 12.9 | 29.0 | 0.00 | 0.00 | 0.00 | 68 | 1004.8 |
| 20260505213100 | 28 | 215 | 14.5 | 38.6 | 0.00 | 0.00 | 0.00 | 66 | 1004.8 |
| 20260505212538 | 28 | 211 | 17.7 | 40.2 | 0.00 | 0.00 | 0.00 | 65 | 1004.7 |
| 20260505212040 | 29 | 177 | 14.5 | 40.2 | 0.00 | 0.00 | 0.00 | 65 | 1004.9 |
| 20260505211554 | 30 | 191 | 14.5 | 35.4 | 0.00 | 0.00 | 0.00 | 65 | 1004.9 |
| 20260505211039 | 30 | 209 | 17.7 | 35.4 | 0.00 | 0.00 | 0.00 | 65 | 1004.9 |
| 20260505210538 | 30 | 226 | 19.3 | 35.4 | 0.00 | 0.00 | 0.00 | 63 | 1004.8 |
| 20260505210049 | 30 | 204 | 20.9 | 35.4 | 0.00 | 0.00 | 0.00 | 66 | 1004.8 |
| 20260505205543 | 30 | 222 | 16.1 | 33.8 | 0.00 | 0.00 | 0.00 | 64 | 1004.9 |
| 20260505205043 | 30 | 175 | 14.5 | 40.2 | 0.00 | 0.00 | 0.00 | 65 | 1004.9 |
| 20260505204550 | 30 | 222 | 17.7 | 40.2 | 0.00 | 0.00 | 0.00 | 64 | 1004.9 |
| 20260505204043 | 30 | 271 | 17.7 | 40.2 | 0.00 | 0.00 | 0.00 | 65 | 1005.0 |
| 20260505203543 | 30 | 173 | 11.3 | 29.0 | 0.00 | 0.00 | 0.00 | 67 | 1005.0 |
| 20260505203050 | 29 | 149 | 9.7 | 24.1 | 0.00 | 0.00 | 0.00 | 68 | 1004.9 |
| 20260505202543 | 29 | 229 | 11.3 | 22.5 | 0.00 | 0.00 | 0.00 | 65 | 1005.3 |
| 20260505202043 | 29 | 172 | 9.7 | 24.1 | 0.00 | 0.00 | 0.00 | 69 | 1005.2 |
| 20260505201552 | 29 | 159 | 11.3 | 27.4 | 0.00 | 0.00 | 0.00 | 70 | 1005.2 |
| 20260505201043 | 29 | 211 | 14.5 | 27.4 | 0.00 | 0.00 | 0.00 | 68 | 1005.3 |
| 20260505200544 | 29 | 216 | 14.5 | 25.7 | 0.00 | 0.00 | 0.00 | 69 | 1005.4 |
| 20260505200049 | 28 | 201 | 14.5 | 25.7 | 0.00 | 0.00 | 0.00 | 69 | 1005.5 |
| 20260505195543 | 27 | 223 | 12.9 | 30.6 | 0.00 | 0.00 | 0.00 | 71 | 1005.7 |
| 20260505195043 | 27 | 204 | 16.1 | 30.6 | 0.00 | 0.00 | 0.00 | 72 | 1005.7 |
| 20260505194554 | 27 | 233 | 14.5 | 25.7 | 0.00 | 0.00 | 0.00 | 74 | 1005.7 |
| 20260505194046 | 27 | 208 | 12.9 | 29.0 | 0.00 | 0.00 | 0.00 | 71 | 1005.8 |
| 20260505193544 | 27 | 205 | 16.1 | 35.4 | 0.00 | 0.00 | 0.00 | 72 | 1005.7 |
| 20260505193056 | 27 | 244 | 17.7 | 37.0 | 0.00 | 0.00 | 0.00 | 72 | 1005.6 |
| 20260505192543 | 26 | 204 | 19.3 | 37.0 | 0.00 | 0.00 | 0.00 | 72 | 1005.6 |
| 20260505192043 | 27 | 193 | 17.7 | 33.8 | 0.00 | 0.00 | 0.00 | 72 | 1005.6 |
| 20260505191556 | 26 | 172 | 14.5 | 40.2 | 0.00 | 0.00 | 0.00 | 72 | 1005.5 |
| 20260505191043 | 26 | 172 | 17.7 | 40.2 | 0.00 | 0.00 | 0.00 | 72 | 1005.5 |
| 20260505190543 | 27 | 216 | 17.7 | 38.6 | 0.00 | 0.00 | 0.00 | 71 | 1005.5 |
| 20260505190056 | 27 | 143 | 16.1 | 30.6 | 0.00 | 0.00 | 0.00 | 73 | 1005.0 |
| 20260505185543 | 27 | 202 | 16.1 | 32.2 | 0.00 | 0.00 | 0.00 | 73 | 1004.9 |
| 20260505185043 | 27 | 228 | 16.1 | 32.2 | 0.00 | 0.00 | 0.00 | 74 | 1005.1 |
| 20260505184558 | 26 | 215 | 12.9 | 30.6 | 0.00 | 0.00 | 0.00 | 78 | 1004.9 |
| 20260505184043 | 25 | 168 | 16.1 | 30.6 | 0.00 | 0.00 | 0.00 | 77 | 1004.8 |
| 20260505183542 | 25 | 197 | 14.5 | 40.2 | 0.00 | 0.00 | 0.00 | 77 | 1005.3 |
| 20260505183051 | 25 | 197 | 19.3 | 40.2 | 0.00 | 0.00 | 0.00 | 77 | 1005.4 |
| 20260505182543 | 25 | 225 | 16.1 | 32.2 | 0.00 | 0.00 | 0.00 | 77 | 1006.1 |
| 20260505182044 | 25 | 186 | 9.7 | 22.5 | 0.00 | 0.00 | 0.00 | 77 | 1006.5 |
| 20260505181551 | 25 | 146 | 11.3 | 25.7 | 0.00 | 0.00 | 0.00 | 78 | 1006.9 |
| 20260505181043 | 25 | 211 | 14.5 | 29.0 | 0.00 | 0.00 | 0.00 | 77 | 1006.7 |
| 20260505180543 | 25 | 205 | 9.7 | 30.6 | 0.00 | 0.00 | 0.00 | 79 | 1006.5 |
| 20260505180057 | 24 | 213 | 12.9 | 35.4 | 0.00 | 0.00 | 0.00 | 78 | 1006.5 |
| 20260505175543 | 24 | 213 | 17.7 | 38.6 | 0.00 | 0.00 | 0.00 | 79 | 1006.7 |
| 20260505175047 | 24 | 230 | 17.7 | 38.6 | 0.00 | 0.00 | 0.00 | 78 | 1006.4 |
| 20260505174610 | 24 | 218 | 17.7 | 29.0 | 0.00 | 0.00 | 0.00 | 79 | 1006.2 |
| 20260505174044 | 23 | 207 | 14.5 | 29.0 | 0.00 | 0.00 | 0.00 | 81 | 1006.1 |
| 20260505173541 | 23 | 200 | 12.9 | 32.2 | 0.00 | 0.00 | 0.00 | 80 | 1006.4 |
| 20260505173053 | 23 | 209 | 14.5 | 32.2 | 0.00 | 0.00 | 0.00 | 81 | 1006.2 |
| 20260505172542 | 23 | 198 | 9.7 | 29.0 | 0.00 | 0.00 | 0.00 | 81 | 1006.1 |
| 20260505172042 | 23 | 202 | 16.1 | 29.0 | 0.00 | 0.00 | 0.00 | 81 | 1006.1 |
| 20260505171550 | 23 | 163 | 12.9 | 30.6 | 0.00 | 0.00 | 0.00 | 82 | 1006.2 |
| 20260505171044 | 23 | 211 | 14.5 | 30.6 | 0.00 | 0.00 | 0.00 | 81 | 1006.4 |
| 20260505170541 | 23 | 209 | 12.9 | 29.0 | 0.00 | 0.00 | 0.00 | 82 | 1006.5 |
| 20260505170122 | 23 | 153 | 12.9 | 38.6 | 0.00 | 0.00 | 0.00 | 83 | 1006.4 |
| 20260505165541 | 23 | 209 | 17.7 | 38.6 | 0.00 | 0.00 | 0.00 | 84 | 1006.5 |
| 20260505165041 | 23 | 203 | 11.3 | 33.8 | 0.00 | 0.00 | 0.00 | 83 | 1006.5 |
| 20260505164552 | 23 | 165 | 14.5 | 35.4 | 0.00 | 0.00 | 0.00 | 82 | 1006.6 |
| 20260505164043 | 23 | 160 | 17.7 | 38.6 | 0.00 | 0.00 | 0.00 | 82 | 1006.5 |
| 20260505163543 | 23 | 226 | 17.7 | 38.6 | 0.00 | 0.00 | 0.00 | 84 | 1006.6 |
| 20260505163050 | 22 | 209 | 12.9 | 33.8 | 0.00 | 0.00 | 0.00 | 86 | 1006.5 |
| 20260505162543 | 22 | 215 | 16.1 | 30.6 | 0.00 | 0.00 | 0.00 | 86 | 1006.5 |
| 20260505162043 | 22 | 180 | 14.5 | 32.2 | 0.00 | 0.00 | 0.00 | 87 | 1006.6 |
| 20260505161557 | 21 | 178 | 12.9 | 32.2 | 0.00 | 0.00 | 0.00 | 89 | 1006.6 |
| 20260505161043 | 21 | 179 | 16.1 | 30.6 | 0.00 | 0.00 | 0.00 | 89 | 1006.4 |
| 20260505160547 | 21 | 150 | 11.3 | 25.7 | 0.00 | 0.00 | 0.00 | 89 | 1006.7 |